Portada
METAR-TAF:

METAR-TAF

Aeroports :

Broken Hill, Austràlia

latitud: 32-00-06S, longitud: 141-28-18E, altitud: 292 m

Observació

L'informe es va fer fa 1 hora i 11 minuts, a les 19:00 UTC
Vent 13 kt del Sud
Temperatura 23°C
Humitat 53%
Pressió 1013 hPa
Visibilitat 10 km o més

METAR: YBHI 091900Z AUTO 19013KT 9999 // NCD 23/13 Q1013

Hora: 06:41 (20:11 UTC)


TAF: manca

Observacions i pronòstics meteorològics de més de 4000 aeroports (METAR i TAF).

Les estacions disponibles són els punts grocs i vermells al mapa.

Posi el ratolí al punt desitjat per veure el nom de l'estació.

Feu clic per veure les observacions i els pronòstics meteorològics.

Per canviar el mapa: feu clic els botons verds amb una creu de color negre per apropar; al botó verd amb un guió per allunyar la imatge; o en les fletxes verdes per a mapes adjacents.


METAR-TAF: